Regional Weather Roundup
Issued by NWS

Home | Current Version | Previous Version | Text Only | Print | Product List | Glossary On
Versions: 1 2 3 4 5 6 7 8 9 10 11 12 13 14 15 16 17 18 19 20 21 22 23 24 25 26 27 28 29 30 31 32 33 34 35 36 37 38 39 40 41 42 43 44 45 46 47 48 49 50
000
ASUS43 KBIS 290710
RWRND

NORTH DAKOTA REGIONAL WEATHER ROUNDUP
NATIONAL WEATHER SERVICE BISMARCK ND
200 AM CDT SAT AUG 29 2015

NOTE: "FAIR" INDICATES FEW OR NO CLOUDS BELOW 12,000 FEET WITH NO
SIGNIFICANT WEATHER AND/OR OBSTRUCTIONS TO VISIBILITY.


NDZ001>003-009>011-017-290800-
NORTHWEST NORTH DAKOTA

CITY           SKY/WX    TMP DP  RH WIND       PRES   REMARKS
WILLISTON      CLOUDY    61  49  64 S3        29.93R HAZE
MINOT          CLOUDY    65  60  84 SE3       29.87F
MINOT AFB      CLEAR     62  61  99 S8        29.86F
$$

NDZ018>021-031>035-040>046-290800-
SOUTHWEST NORTH DAKOTA

CITY           SKY/WX    TMP DP  RH WIND       PRES   REMARKS
BISMARCK       CLEAR     64  63  96 CALM      29.91F
DICKINSON      CLOUDY    58  47  66 S3        29.96S HAZE
GARRISON         N/A     60  27  28 CALM      29.91S
HETTINGER ARPT CLOUDY    55  49  80 CALM      30.01S HAZE
$$

NDZ004>008-012>016-024-026-027-054-290800-
NORTHEAST NORTH DAKOTA

CITY           SKY/WX    TMP DP  RH WIND       PRES   REMARKS
GRAND FORKS    CLEAR     65  64  97 S6        29.87F
GRND FRKS AFB  CLEAR     63  63  98 SW5       29.88S FOG
DEVILS LAKE    MOCLDY    61  55  82 CALM      29.89S VSB 3/4
$$

NDZ022-023-025-028>030-036>039-047>053-290800-
SOUTHEAST NORTH DAKOTA

CITY           SKY/WX    TMP DP  RH WIND       PRES   REMARKS
FARGO          CLEAR     68  62  81 S12       29.92F
JAMESTOWN      CLEAR     65  63  93 S8        29.91F
$$




USA.gov is the U.S. government's official web portal to all federal, state and local government web resources and services.